Weather History for Flint, MI

Change the Weather History Date:

Monday, June 30, 2014

  Actual Average Record
Temperature  
Mean Temperature 80 °F 70 °F  
Max Temperature 87 °F 81 °F 98 °F (1933)
Min Temperature 73 °F 58 °F 42 °F (1943)
Degree Days  
Heating Degree Days 0 1  
Month to date heating degree days 22 66  
Since 1 June heating degree days 22 66  
Since 1 July heating degree days 7479 6953  
Cooling Degree Days 15 6  
Month to date cooling degree days 152 112  
Year to date cooling degree days 200 144  
Since 1 June cooling degree days 152 112  
Growing Degree Days 30 (Base 50)    
Moisture  
Dew Point 69 °F    
Average Humidity 70    
Maximum Humidity 84    
Minimum Humidity 55    
Precipitation  
Precipitation 0.00 in 0.09 in 1.68 in (1976)
Month to date precipitation 2.46 3.07  
Year to date precipitation 17.41 14.06  
Snow  
Snow 0.00 in 0.00 in 0.00 in ()
Month to date snowfall 0.0 0.0  
Since 1 June snowfall 0.0 0.0  
Since 1 July snowfall 83.9 47.4  
Snow Depth 0.00 in    
Sea Level Pressure  
Sea Level Pressure 29.84 in    
Wind  
Wind Speed 8 mph (SSW)    
Max Wind Speed 16 mph    
Max Gust Speed 22 mph    
Visibility 10 miles    
Events      
T = Trace of Precipitation, MM = Missing Value Source: NWS Daily Summary

Daily Weather History Graph

Daily Weather History Graph

Search for Another Location

Airport:

Trip Planner

Search our weather history database for the weather conditions in past years. The results will help you decide how hot, cold, wet, or windy it might be!

Date:

Astronomy

Jun. 30, 2014 Rise Set
Actual Time 5:59 AM EDT 9:17 PM EDT
Civil Twilight 5:24 AM EDT 9:53 PM EDT
Nautical Twilight 4:38 AM EDT 10:38 PM EDT
Astronomical Twilight 3:42 AM EDT 11:34 PM EDT
Moon 9:16 AM EDT (6/30) 11:04 PM EDT (6/30)
Length of Visible Light 16h 28m
Length of Day
15h 18m
Waxing Crescent, 10% of the Moon is Illuminated
Jun 30
Waxing Crescent
Jul 5
First Quarter
Jul 12
Full
Jul 18
Last Quarter
Jul 26
New

Hourly Weather History & Observations

Time (EDT) Temp. Heat Index Dew Point Humidity Pressure Visibility Wind Dir Wind Speed Gust Speed Precip Events Conditions
12:53 AM 77.0 °F - 66.0 °F 69% 29.90 in 10.0 mi South 6.9 mph - N/A   Clear
1:53 AM 75.9 °F - 66.9 °F 74% 29.92 in 10.0 mi SW 6.9 mph - N/A   Clear
2:53 AM 75.9 °F - 68.0 °F 76% 29.91 in 10.0 mi SW 9.2 mph - N/A   Clear
3:53 AM 73.9 °F - 68.0 °F 82% 29.93 in 10.0 mi SW 5.8 mph - N/A   Clear
4:53 AM 73.9 °F - 68.0 °F 82% 29.93 in 9.0 mi SSW 5.8 mph - N/A   Clear
5:17 AM 73.9 °F - 69.1 °F 85% 29.94 in 9.0 mi SW 6.9 mph - N/A   Mostly Cloudy
5:38 AM 73.9 °F - 69.1 °F 85% 29.92 in 9.0 mi SSW 6.9 mph - N/A   Scattered Clouds
5:53 AM 73.9 °F - 68.0 °F 82% 29.89 in 8.0 mi SSW 8.1 mph - N/A   Clear
6:53 AM 73.9 °F - 68.0 °F 82% 29.86 in 8.0 mi South 9.2 mph - N/A   Clear
7:53 AM 75.0 °F - 68.0 °F 79% 29.87 in 10.0 mi SSW 4.6 mph - N/A   Partly Cloudy
8:50 AM 77.0 °F - 69.8 °F 78% 29.88 in 10.0 mi South 5.8 mph - N/A   Mostly Cloudy
8:53 AM 77.0 °F - 69.1 °F 76% 29.87 in 10.0 mi South 5.8 mph - N/A   Mostly Cloudy
9:53 AM 78.1 °F - 69.1 °F 74% 29.87 in 10.0 mi South 6.9 mph - N/A   Overcast
10:53 AM 80.1 °F 82.9 °F 69.1 °F 69% 29.85 in 10.0 mi South 9.2 mph - N/A   Partly Cloudy
11:53 AM 82.9 °F 86.5 °F 69.1 °F 63% 29.85 in 10.0 mi South 9.2 mph - N/A   Clear
12:53 PM 84.0 °F 88.4 °F 70.0 °F 63% 29.84 in 10.0 mi SSW 8.1 mph - N/A   Clear
1:53 PM 84.0 °F 87.8 °F 69.1 °F 61% 29.84 in 10.0 mi SSW 9.2 mph 19.6 mph N/A   Mostly Cloudy
2:53 PM 84.9 °F 88.8 °F 69.1 °F 59% 29.83 in 10.0 mi SSW 10.4 mph - N/A   Scattered Clouds
3:53 PM 86.0 °F 90.7 °F 70.0 °F 59% 29.81 in 10.0 mi South 8.1 mph - N/A   Scattered Clouds
4:53 PM 87.1 °F 92.0 °F 70.0 °F 57% 29.78 in 10.0 mi South 10.4 mph - N/A   Scattered Clouds
5:53 PM 84.9 °F 88.8 °F 69.1 °F 59% 29.77 in 10.0 mi SSW 10.4 mph - N/A   Scattered Clouds
6:53 PM 84.9 °F 88.2 °F 68.0 °F 57% 29.77 in 10.0 mi South 11.5 mph - N/A   Partly Cloudy
7:53 PM 82.9 °F 85.8 °F 68.0 °F 60% 29.75 in 10.0 mi SSW 9.2 mph - N/A   Clear
8:53 PM 82.0 °F 84.9 °F 68.0 °F 62% 29.77 in 10.0 mi SSW 8.1 mph - N/A   Scattered Clouds
9:53 PM 80.1 °F 82.7 °F 68.0 °F 67% 29.77 in 10.0 mi SW 9.2 mph - N/A   Partly Cloudy
10:53 PM 80.1 °F 82.7 °F 68.0 °F 67% 29.76 in 10.0 mi SSW 9.2 mph - N/A   Scattered Clouds
11:53 PM 80.1 °F 82.9 °F 69.1 °F 69% 29.72 in 10.0 mi SSW 9.2 mph - N/A   Clear